Location: Newark
(39.5667°N, 8.9833°E)
Time: 10:36:03
(UTC+00:00)

Transit 2A - Pass Details

Date: 24 October 2019
Orbit: 601 x 957 km, 66.7° (Epoch: 21 November)

Event Time Altitude Azimuth Distance (km) Brightness Sun altitude
Rises 01:40:33 0° 343° (NNW) 2,892 - -46.3°
Reaches altitude 10° 01:43:22 10° 1° (N) 1,960 - -45.8°
Maximum altitude 01:46:35 20° 49° (NE) 1,420 - -45.3°
Drops below altitude 10° 01:49:47 10° 97° (E) 1,950 - -44.7°
Sets 01:52:34 0° 115° (ESE) 2,871 - -44.2°
